Weather Roundup
Issued by NWS Corpus Christi, TX

Home | Current Version | Previous Version | Text Only | Print | Product List | Glossary On
Versions: 1 2 3 4 5 6 7 8 9 10 11 12 13 14 15 16 17 18 19 20 21 22 23 24 25 26 27 28 29 30 31 32 33 34 35 36 37 38 39 40 41 42 43 44 45 46 47 48 49 50
000
ASUS44 KCRP 302310
HRRCRP

SOUTH TEXAS REGIONAL WEATHER ROUNDUP
NATIONAL WEATHER SERVICE CORPUS CHRISTI TX
600 PM CDT SUN AUG 30 2015


TXZ229>244-310000-
...CORPUS CHRISTI AREA OBSERVATIONS...

CITY           SKY/WX    TMP DP  RH WIND       PRES   REMARKS
CORPUS CHRISTI MOSUNNY   89  70  53 SE21      29.92F HX  94
NAS CORPUS CHR SUNNY     87  74  64 E20       29.93F HX  95
ROCKPORT       SUNNY     88  70  55 SE14      29.93F HX  93
KINGSVILLE NAS PTSUNNY   91  74  57 SE17      29.92R HX 100
ALICE          MOSUNNY   92  70  48 SE20G26   29.90S HX  97
FALFURRIAS     SUNNY     92  70  47 E16G23    29.90R HX  98
$$

...VICTORIA AREA OBSERVATIONS...

CITY           SKY/WX    TMP DP  RH WIND       PRES   REMARKS
VICTORIA       MOSUNNY   91  67  44 SE17      29.93S HX  94
BEEVILLE       FAIR      92  70  48 SE12      29.92S HX  98
PLEASANTON     SUNNY     95  58  29 E7        29.93S HX  94
SAN ANTONIO    MOSUNNY   92  60  34 E14       29.96R HX  91
$$

...LAREDO AREA OBSERVATIONS...

CITY           SKY/WX    TMP DP  RH WIND       PRES   REMARKS
LAREDO         SUNNY    100  54  21 CALM      29.89F HX  98
COTULLA        MOSUNNY   97  59  28 SE8       29.89F HX  96
DEL RIO        PTSUNNY   93  58  30 E5        29.91F HX  92
MCALLEN        SUNNY     91  69  48 SE18G24   29.90F HX  96
HEBBRONVILLE   NOT AVBL
$$

...OTHER TEXAS OBSERVATIONS...

CITY           SKY/WX    TMP DP  RH WIND       PRES   REMARKS
BROWNSVILLE    PTSUNNY   87  75  67 SE13      29.93F HX  96
HOUSTON        PTSUNNY   87  67  51 SE14      29.95F HX  90
COL. STATION   MOSUNNY   88  66  48 S8        29.96S HX  90
AUSTIN         PTSUNNY   90  62  39 S8        29.95R HX  90
WACO           CLOUDY    86  67  52 NE7       29.96S
FORT WORTH     PTSUNNY   93  61  34 S7        29.91F HX  93
WICHITA FALLS  SUNNY     95  55  26 W6        29.89F HX  93
LUBBOCK        MOSUNNY   90  48  23 S6        30.02F
EL PASO        MOSUNNY   91  48  22 VRB5      30.02F
$$

...MARINE OBSERVATIONS...

STATION/POSITION TIME  SKY/WX   TEMP    WIND        PRES    VSBY  WAVE   SWELL
                                AIR SEA DIR/SP/G                  HT/PER HT/PER
                 (UTC)          (F)     (DEG/KT/KT) (MB)    (MI)  (FT/S) (FT/S)
PORT ARANSAS     2300            84 88  110/ 14/ 16 1014.8F
BUOY 90 E PORT A 2250            84 86  120/  8/ 10 1014.6F         1/ 6   2/ 6
BUOY 45 SE BAFFI 2250            84 85  130/ 10/ 12 1013.7F         1/ 5   2/ 5
BUOY 200 E PT IS 2250            86 87  110/  4/  4 1015.0S         1
BUOY 15 E GALVES 2250            85 87  130/  8/ 10 1014.5F         1
$$


USA.gov is the U.S. government's official web portal to all federal, state and local government web resources and services.